South Bend, IN

6:42 PM EDT on October 16, 2017 (GMT -0400)
South Bend Regional

Weather History for KSBN - November, 2014

Change the Weather History Date:

Sunday, November 16, 2014

  Actual Average Record
Temperature  
Mean Temperature 25 °F 41 °F  
Max Temperature 31 °F 48 °F 71 °F (1953)
Min Temperature 19 °F 33 °F 9 °F (1900)
Degree Days  
Heating Degree Days 40 24  
Month to date heating degree days 431 338  
Since 1 July heating degree days 964 879  
Moisture  
Dew Point 24 °F    
Average Humidity 77    
Maximum Humidity 85    
Minimum Humidity 68    
Precipitation  
Precipitation 0.01 in 0.12 in 1.28 in (1928)
Month to date precipitation 1.24 1.74  
Year to date precipitation 37.84 33.86  
Snow  
Snow 0.20 in 0.10 in 6.90 in (1989)
Month to date snowfall 13.6 1.6  
Since 1 July snowfall 13.8 2.0  
Since 1 September snowfall 13.8 2.0  
Snow Depth 3.00 in    
Sea Level Pressure  
Sea Level Pressure 30.07 in    
Wind  
Wind Speed 6 mph (SSW)    
Max Wind Speed 14 mph    
Max Gust Speed 16 mph    
Visibility 6 miles    
Events Snow    
T = Trace of Precipitation, MM = Missing Value Source: NWS Daily Summary

Daily Weather History Graph

Daily Weather History Graph

Search for Another Location

Airport or City:

Trip Planner

Search our weather history database for the weather conditions in past years. The results will help you decide how hot, cold, wet, or windy it might be!

Date:

Astronomy

Nov. 16, 2014 Rise Set
Actual Time 7:35 AM EST 5:24 PM EST
Civil Twilight 7:05 AM EST 5:53 PM EST
Nautical Twilight 6:32 AM EST 6:27 PM EST
Astronomical Twilight 5:59 AM EST 7:00 PM EST
Moon 1:36 AM EST 2:21 PM EST
Length of Visible Light 10h 48m
Length of Day
9h 48m
Waning Crescent, 31% of the Moon is Illuminated
Nov 16
Waning Crescent
Nov 22
New
Nov 29
First Quarter
Dec 6
Full
Dec 14
Last Quarter

Hourly Weather History & Observations

Time (EST) Temp. Windchill Dew Point Humidity Pressure Visibility Wind Dir Wind Speed Gust Speed Precip Events Conditions
12:54 AM 27.0 °F 21.6 °F 19.0 °F 72% 30.24 in 8.0 mi SW 4.6 mph - 0.00 in   Overcast
1:54 AM 26.1 °F 20.5 °F 19.9 °F 78% 30.23 in 10.0 mi SSW 4.6 mph - N/A   Overcast
2:54 AM 26.1 °F 20.5 °F 19.9 °F 78% 30.21 in 10.0 mi South 4.6 mph - N/A   Overcast
3:54 AM 26.1 °F - 19.9 °F 78% 30.20 in 10.0 mi Calm Calm - N/A   Overcast
4:54 AM 26.1 °F 20.5 °F 19.9 °F 78% 30.21 in 9.0 mi WSW 4.6 mph - N/A   Overcast
5:54 AM 26.1 °F - 19.0 °F 75% 30.17 in 10.0 mi Calm Calm - N/A   Mostly Cloudy
6:54 AM 21.0 °F 16.2 °F 16.0 °F 81% 30.17 in 8.0 mi South 3.5 mph - N/A   Mostly Cloudy
7:43 AM 21.9 °F - 18.0 °F 85% 30.13 in 7.0 mi Calm Calm - N/A   Overcast
7:54 AM 21.9 °F - 18.0 °F 85% 30.17 in 7.0 mi Calm Calm - N/A   Overcast
8:54 AM 27.0 °F 20.5 °F 19.9 °F 75% 30.16 in 8.0 mi SSW 5.8 mph - N/A   Overcast
9:54 AM 28.9 °F 21.9 °F 21.0 °F 72% 30.14 in 9.0 mi SSW 6.9 mph - N/A   Overcast
10:54 AM 30.0 °F 21.7 °F 23.0 °F 75% 30.14 in 8.0 mi SSW 9.2 mph - N/A   Overcast
11:14 AM 30.0 °F 21.7 °F 24.1 °F 79% 30.11 in 1.5 mi SSW 9.2 mph - 0.00 in Snow Light Snow
11:25 AM 28.9 °F 21.9 °F 25.0 °F 85% 30.11 in 1.5 mi SW 6.9 mph - 0.00 in Snow Light Snow
11:37 AM 28.9 °F 21.9 °F 26.1 °F 89% 30.11 in 1.5 mi SSW 6.9 mph - 0.01 in Snow Light Snow
11:50 AM 28.4 °F 21.2 °F 26.6 °F 93% 30.10 in 1.5 mi South 6.9 mph - 0.01 in Snow Light Snow
11:54 AM 28.9 °F 21.9 °F 26.1 °F 89% 30.12 in 1.5 mi South 6.9 mph - 0.01 in Snow Light Snow
12:07 PM 28.9 °F 21.1 °F 26.1 °F 89% 30.08 in 1.5 mi South 8.1 mph - 0.00 in Snow Light Snow
12:45 PM 30.0 °F 21.7 °F 25.0 °F 82% 30.06 in 1.5 mi South 9.2 mph - 0.00 in Snow Light Snow
12:48 PM 30.2 °F 22.6 °F 24.8 °F 80% 30.06 in 3.0 mi South 8.1 mph - 0.00 in Snow Light Snow
12:54 PM 30.0 °F 22.4 °F 26.1 °F 85% 30.09 in 3.0 mi SSW 8.1 mph - 0.00 in Snow Light Snow
1:03 PM 30.0 °F 21.1 °F 25.0 °F 82% 30.06 in 2.5 mi SSW 10.4 mph - 0.00 in Snow Light Snow
1:45 PM 30.0 °F 21.7 °F 25.0 °F 82% 30.03 in 2.5 mi South 9.2 mph - 0.00 in   Haze
1:54 PM 30.0 °F 22.4 °F 25.0 °F 82% 30.06 in 5.0 mi SSW 8.1 mph - 0.00 in   Haze
2:20 PM 30.0 °F 22.4 °F 25.0 °F 82% 30.01 in 6.0 mi SSW 8.1 mph - N/A   Haze
2:54 PM 30.0 °F 22.4 °F 25.0 °F 82% 30.03 in 5.0 mi SSW 8.1 mph - N/A   Haze
2:56 PM 30.0 °F 21.7 °F 25.0 °F 82% 30.00 in 5.0 mi SSW 9.2 mph - N/A   Haze
3:54 PM 30.9 °F 22.8 °F 24.1 °F 76% 30.04 in 7.0 mi SSW 9.2 mph - N/A   Overcast
4:54 PM 30.9 °F 24.3 °F 25.0 °F 79% 30.03 in 7.0 mi SSW 6.9 mph - N/A   Overcast
5:54 PM 30.9 °F 24.3 °F 25.0 °F 79% 30.02 in 7.0 mi SSW 6.9 mph - N/A   Overcast
6:54 PM 30.0 °F 24.1 °F 25.0 °F 82% 30.01 in 6.0 mi South 5.8 mph - N/A   Haze
7:46 PM 30.0 °F 23.2 °F 27.0 °F 88% 29.96 in 5.0 mi SSW 6.9 mph - N/A   Overcast
7:54 PM 30.0 °F 23.2 °F 27.0 °F 88% 29.99 in 5.0 mi SSW 6.9 mph - N/A   Overcast
8:46 PM 30.0 °F 23.2 °F 27.0 °F 88% 29.94 in 5.0 mi SSW 6.9 mph - N/A   Overcast
8:54 PM 30.0 °F 23.2 °F 27.0 °F 88% 29.96 in 5.0 mi SSW 6.9 mph - N/A   Overcast
9:09 PM 30.0 °F 23.2 °F 27.0 °F 88% 29.93 in 5.0 mi SSW 6.9 mph - N/A   Overcast
9:54 PM 30.0 °F 22.4 °F 27.0 °F 88% 29.95 in 5.0 mi SSW 8.1 mph - N/A   Overcast
10:54 PM 30.0 °F 22.4 °F 27.0 °F 88% 29.93 in 5.0 mi SSW 8.1 mph - N/A   Overcast
11:41 PM 30.0 °F 23.2 °F 27.0 °F 88% 29.89 in 5.0 mi SW 6.9 mph - N/A   Overcast
11:54 PM 30.0 °F 20.5 °F 27.0 °F 88% 29.92 in 5.0 mi SSW 11.5 mph - N/A   Overcast